Location: ???? ????
(41.4149°N, 22.8816°E)
Time: 14:35:55
(UTC+00:00)

SL-8 R/B - Pass Details

Date: 14 July 2020
Orbit: 656 x 668 km, 48.4° (Epoch: 03 August)

Event Time Altitude Azimuth Distance (km) Brightness Sun altitude
Exits shadow 00:08:41 42° 277° (W) 941 4.3 -23.3°
Maximum altitude 00:10:05 62° 337° (NNW) 747 4.0 -23.2°
Drops below altitude 10° 00:14:51 10° 58° (ENE) 2,082 7.0 -22.8°
Sets 00:17:14 0° 62° (ENE) 2,994 7.9 -22.6°
